Regional Weather Roundup
Issued by NWS

Home | Current Version | Previous Version | Text Only | Print | Product List | Glossary On
Versions: 1 2 3 4 5 6 7 8 9 10 11 12 13 14 15 16 17 18 19 20 21 22 23 24 25 26 27 28 29 30 31 32 33 34 35 36 37 38 39 40 41 42 43 44 45 46 47 48 49 50
000
ASUS43 KBIS 231810
RWRND

NORTH DAKOTA REGIONAL WEATHER ROUNDUP
NATIONAL WEATHER SERVICE BISMARCK ND
100 PM CDT WED APR 23 2014

NOTE: "FAIR" INDICATES FEW OR NO CLOUDS BELOW 12,000 FEET WITH NO
SIGNIFICANT WEATHER AND/OR OBSTRUCTIONS TO VISIBILITY.


NDZ001>003-009>011-017-231900-
NORTHWEST NORTH DAKOTA

CITY           SKY/WX    TMP DP  RH WIND       PRES   REMARKS
WILLISTON      CLOUDY    58  38  47 SE13G22   29.44S
6HR MIN TEMP:  51; 6HR MAX TEMP:  61;

MINOT          LGT RAIN  48  42  80 E23G32    29.56F
MINOT AFB      CLOUDY    48  45  90 SE25G35   29.57F
$$

NDZ018>021-031>035-040>046-231900-
SOUTHWEST NORTH DAKOTA

CITY           SKY/WX    TMP DP  RH WIND       PRES   REMARKS
BISMARCK       LGT RAIN  53  42  66 SE22G32   29.56S
6HR MIN TEMP:  50; 6HR MAX TEMP:  59; 6HR PCP: TRACE;

DICKINSON      CLOUDY    57  37  47 S14       29.43F
GARRISON         N/A     57  39  51 SE24G33   29.50F
6HR MIN TEMP:  46; 6HR MAX TEMP:  58; 6HR PCP:  0.07;

HETTINGER ARPT CLOUDY    56  43  61 W22G30    29.52R
$$

NDZ004>008-012>016-024-026-027-054-231900-
NORTHEAST NORTH DAKOTA

CITY           SKY/WX    TMP DP  RH WIND       PRES   REMARKS
GRAND FORKS    LGT RAIN  45  40  82 SE21      29.87F
GRND FRKS AFB  LGT RAIN  44  44  99 SE18      29.86F
DEVILS LAKE    CLOUDY    43  36  75 SE22      29.75F
$$

NDZ022-023-025-028>030-036>039-047>053-231900-
SOUTHEAST NORTH DAKOTA

CITY           SKY/WX    TMP DP  RH WIND       PRES   REMARKS
FARGO          RAIN      44  41  89 SE17G28   29.85F FOG
6HR MIN TEMP:  43; 6HR MAX TEMP:  48; 6HR PCP:  0.18;

JAMESTOWN      PTSUNNY   49  43  80 SE26G44   29.70F
$$




USA.gov is the U.S. government's official web portal to all federal, state and local government web resources and services.